This is the latest recevied weather packets stored in our database for station/object KC9MWQ-13. If no packets are shown the sender has not sent any weather packets the latest 10 day(s).
| Time | Temp. | Humidity | Pressure | Rain* | Wind** | Luminosity | Snow |
|---|---|---|---|---|---|---|---|
| 1777322235 | 16.67° C | 99% | 1015.5 hPa | 33.53 mm | - | 8 W/m² | - |
| 1777321931 | 16.67° C | 99% | 1015.4 hPa | 33.53 mm | - | 9 W/m² | - |
| 1777321628 | 16.67° C | 99% | 1015.3 hPa | 10.67 mm | - | 4 W/m² | - |
| 1777321324 | 16.67° C | 99% | 1015.2 hPa | 7.11 mm | - | 9 W/m² | - |
| 1777321021 | 16.67° C | 99% | 1014.9 hPa | 6.6 mm | - | 11 W/m² | - |
| 1777320719 | 16.67° C | 99% | 1014.7 hPa | 7.87 mm | - | 11 W/m² | - |
| 1777320416 | 16.67° C | 99% | 1014.7 hPa | 7.87 mm | - | 12 W/m² | - |
| 1777320113 | 16.67° C | 98% | 1014.5 hPa | 8.89 mm | - | 10 W/m² | - |
| 1777319811 | 16.67° C | 98% | 1014.5 hPa | 8.89 mm | - | 10 W/m² | - |
| 1777319507 | 17.22° C | 98% | 1014.6 hPa | 9.65 mm | - | 8 W/m² | - |
| 1777319204 | 17.22° C | 97% | 1014.5 hPa | 8.89 mm | - | 9 W/m² | - |
| 1777318901 | 17.78° C | 96% | 1014.4 hPa | 7.11 mm | - | 8 W/m² | - |
| 1777318598 | 17.78° C | 95% | 1014.4 hPa | 6.1 mm | - | 9 W/m² | - |
| 1777318295 | 18.33° C | 92% | 1014.1 hPa | 4.83 mm | - | 10 W/m² | - |
| 1777317991 | 18.89° C | 89% | 1013.5 hPa | 3.05 mm | - | 10 W/m² | - |
| 1777317689 | 18.89° C | 86% | 1012.9 hPa | 3.05 mm | - | 13 W/m² | - |
| 1777317386 | 18.89° C | 84% | 1012.5 hPa | 1.78 mm | - | 14 W/m² | - |
| 1777317081 | 19.44° C | 83% | 1012.2 hPa | 0 mm | - | 16 W/m² | - |
| 1777316779 | 20° C | 81% | 1012.2 hPa | 0 mm | - | 17 W/m² | - |
| 1777316475 | 20° C | 79% | 1012.4 hPa | 0 mm | - | 18 W/m² | - |
| 1777316172 | 20° C | 78% | 1011.9 hPa | 0 mm | - | 20 W/m² | - |
| 1777315870 | 20.56° C | 77% | 1012.1 hPa | 0 mm | - | 23 W/m² | - |
| 1777315568 | 20.56° C | 76% | 1012.2 hPa | 0 mm | - | 29 W/m² | - |
| 1777315266 | 20.56° C | 77% | 1012.2 hPa | 0 mm | - | 32 W/m² | - |
| 1777314963 | 20° C | 76% | 1012.2 hPa | 0 mm | - | 38 W/m² | - |
* Rain latest hour (hover to see other rain measurements)
** Current wind speed in m/s (hover to see current wind gust speed)